sat.trackr.live / text

‹ back to catalog

QIANFAN-11

NORAD 60389 · 2024-140L

PAYLOAD ACTIVE UNKNOWN

§ Identity

Operator
Country
PRC
Launch date
2024-08-06
Launch site
TAISC
Launch vehicle
Mass (kg)
RCS (m²)

External: N2YO · Heavens-Above · Gunter

§ Orbital elements

Epoch: 2026-05-25T04:24:13.702752Z

Period
106.59 min
Inclination
88.9654°
Eccentricity
0.0016290
Mean motion
13.51005998 rev/d
Perigee alt
1,056.4 km
Apogee alt
1,080.7 km
Semi-major
7,446.7 km
B*
3.4878e-5
RAAN
282.2096°
Arg perigee
87.9255°
Mean anomaly
272.3762°
Rev number
8,918

§ Raw data

QIANFAN-111 60389U 24140L   26145.18349193  .00000035  00000+0  34878-4 0  99942 60389  88.9654 282.2096 0016290  87.9255 272.3762 13.51005998 89187

JSON: /api/v1/satellites/60389 · /tle

For live sub-satellite position, see the globe view (requires WebGL).

§ Visibility from observer

Set your observer location to see the next 7 days of passes ≥ 10°. The values pass through the URL so the page stays shareable.

No JS? Fill the form by hand. The geolocation button needs JavaScript.